• In Uzbekistan
  • List of Countries
  • For 7 days
  • Water Temperature
  • Satellite Maps
  • Weather Map
  • Weather Widgets
  • user-avatar
    Login

    Hourly Weather Badhan

    Today, 16 January, Wednesday

    Time Temperature Precipitation Wind Pressure Humidity
    00:00 +18°C° 0 mm 3 mps 656 mmHg 69%
    01:00 +18°C° 0 mm 2 mps 656 mmHg 71%
    02:00 +17°C° 0 mm 2 mps 656 mmHg 72%
    03:00 +17°C° 0 mm 2 mps 655 mmHg 71%
    04:00 +16°C° 0 mm 2 mps 655 mmHg 72%
    05:00 +16°C° 0 mm 2 mps 655 mmHg 73%
    06:00 +16°C° 0 mm 2 mps 655 mmHg 73%
    07:00 +17°C° 0 mm 2 mps 656 mmHg 63%
    08:00 +19°C° 0 mm 2 mps 657 mmHg 52%
    09:00 +21°C° 0 mm 2 mps 658 mmHg 42%
    10:00 +24°C° 0 mm 2 mps 658 mmHg 35%
    11:00 +25°C° 0 mm 2 mps 658 mmHg 27%
    12:00 +27°C° 0 mm 2 mps 658 mmHg 20%
    13:00 +28°C° 0 mm 3 mps 658 mmHg 19%
    14:00 +28°C° 0 mm 3 mps 657 mmHg 18%
    15:00 +29°C° 0 mm 3 mps 657 mmHg 18%
    16:00 +28°C° 0 mm 3 mps 657 mmHg 22%
    17:00 +27°C° 0 mm 4 mps 657 mmHg 27%
    18:00 +26°C° 0 mm 4 mps 656 mmHg 32%
    19:00 +23°C° 0 mm 4 mps 656 mmHg 41%
    20:00 +22°C° 0 mm 4 mps 656 mmHg 51%
    21:00 +21°C° 0 mm 3 mps 656 mmHg 60%
    22:00 +20°C° 0 mm 3 mps 656 mmHg 63%
    23:00 +20°C° 0 mm 2 mps 656 mmHg 66%

    Tomorrow, 17 January, Thursday

    Time Temperature Precipitation Wind Pressure Humidity
    00:00 +19°C° 0 mm 2 mps 656 mmHg 70%
    01:00 +18°C° 0 mm 2 mps 655 mmHg 71%
    02:00 +18°C° 0 mm 2 mps 655 mmHg 72%
    03:00 +17°C° 0 mm 2 mps 655 mmHg 73%
    04:00 +17°C° 0 mm 2 mps 655 mmHg 75%
    05:00 +17°C° 0 mm 2 mps 655 mmHg 76%
    06:00 +16°C° 0 mm 2 mps 655 mmHg 78%
    07:00 +18°C° 0 mm 2 mps 656 mmHg 69%
    08:00 +19°C° 0 mm 2 mps 657 mmHg 60%
    09:00 +21°C° 0 mm 2 mps 658 mmHg 52%
    10:00 +24°C° 0 mm 2 mps 658 mmHg 43%
    11:00 +26°C° 0 mm 2 mps 658 mmHg 34%
    12:00 +27°C° 0 mm 2 mps 658 mmHg 25%
    13:00 +28°C° 0 mm 2 mps 657 mmHg 22%
    14:00 +29°C° 0 mm 3 mps 657 mmHg 20%
    15:00 +29°C° 0 mm 3 mps 656 mmHg 17%
    16:00 +28°C° 0 mm 3 mps 656 mmHg 20%
    17:00 +27°C° 0 mm 4 mps 656 mmHg 24%
    18:00 +26°C° 0 mm 4 mps 656 mmHg 27%
    19:00 +25°C° 0 mm 4 mps 656 mmHg 34%
    20:00 +22°C° 0 mm 3 mps 656 mmHg 41%
    21:00 +21°C° 0 mm 3 mps 656 mmHg 48%
    22:00 +21°C° 0 mm 3 mps 656 mmHg 50%
    23:00 +20°C° 0 mm 3 mps 656 mmHg 53%

    Day after tomorrow, 18 January, Friday

    Time Temperature Precipitation Wind Pressure Humidity
    00:00 +19°C° 0 mm 2 mps 656 mmHg 55%
    01:00 +19°C° 0 mm 2 mps 655 mmHg 56%
    02:00 +18°C° 0 mm 2 mps 655 mmHg 56%
    03:00 +18°C° 0 mm 2 mps 655 mmHg 57%
    04:00 +17°C° 0 mm 2 mps 655 mmHg 60%
    05:00 +16°C° 0 mm 2 mps 655 mmHg 63%
    06:00 +16°C° 0 mm 2 mps 655 mmHg 67%
    07:00 +17°C° 0 mm 2 mps 656 mmHg 58%
    08:00 +19°C° 0 mm 2 mps 657 mmHg 49%
    09:00 +21°C° 0 mm 2 mps 658 mmHg 40%
    10:00 +24°C° 0 mm 2 mps 658 mmHg 32%
    11:00 +25°C° 0 mm 3 mps 658 mmHg 23%
    12:00 +27°C° 0 mm 3 mps 658 mmHg 15%
    13:00 +28°C° 0 mm 3 mps 658 mmHg 15%
    14:00 +28°C° 0 mm 3 mps 657 mmHg 14%
    15:00 +29°C° 0 mm 4 mps 657 mmHg 14%
    16:00 +27°C° 0 mm 4 mps 656 mmHg 19%
    17:00 +26°C° 0 mm 4 mps 656 mmHg 25%
    18:00 +25°C° 0 mm 5 mps 656 mmHg 30%
    19:00 +23°C° 0 mm 4 mps 656 mmHg 36%
    20:00 +21°C° 0 mm 4 mps 657 mmHg 42%
    21:00 +20°C° 0 mm 3 mps 657 mmHg 48%
    22:00 +20°C° 0 mm 3 mps 656 mmHg 49%
    23:00 +19°C° 0 mm 3 mps 656 mmHg 50%

    19 January, Saturday

    Time Temperature Precipitation Wind Pressure Humidity
    00:00 +18°C° 0 mm 3 mps 656 mmHg 52%
    01:00 +18°C° 0 mm 3 mps 655 mmHg 53%
    02:00 +17°C° 0 mm 3 mps 655 mmHg 54%
    03:00 +17°C° 0 mm 3 mps 654 mmHg 55%
    04:00 +16°C° 0 mm 3 mps 655 mmHg 57%
    05:00 +16°C° 0 mm 2 mps 655 mmHg 59%
    06:00 +15°C° 0 mm 2 mps 655 mmHg 61%
    07:00 +17°C° 0 mm 2 mps 656 mmHg 50%
    08:00 +19°C° 0 mm 3 mps 657 mmHg 40%
    09:00 +21°C° 0 mm 3 mps 658 mmHg 30%
    10:00 +24°C° 0 mm 3 mps 658 mmHg 25%
    11:00 +25°C° 0 mm 3 mps 658 mmHg 20%
    12:00 +27°C° 0 mm 3 mps 658 mmHg 16%
    13:00 +27°C° 0 mm 3 mps 657 mmHg 16%
    14:00 +28°C° 0 mm 3 mps 657 mmHg 16%
    15:00 +28°C° 0 mm 3 mps 656 mmHg 16%
    16:00 +27°C° 0 mm 3 mps 656 mmHg 20%
    17:00 +26°C° 0 mm 4 mps 656 mmHg 24%
    18:00 +25°C° 0 mm 4 mps 656 mmHg 29%
    19:00 +23°C° 0 mm 4 mps 657 mmHg 37%
    20:00 +22°C° 0 mm 3 mps 657 mmHg 45%
    21:00 +21°C° 0 mm 3 mps 657 mmHg 53%
    22:00 +20°C° 0 mm 3 mps 657 mmHg 57%
    23:00 +19°C° 0 mm 3 mps 657 mmHg 60%

    20 January, Sunday

    Time Temperature Precipitation Wind Pressure Humidity
    00:00 +19°C° 0 mm 3 mps 657 mmHg 64%
    01:00 +18°C° 0 mm 3 mps 656 mmHg 68%
    02:00 +17°C° 0 mm 3 mps 656 mmHg 73%
    03:00 +17°C° 0 mm 3 mps 655 mmHg 77%
    04:00 +16°C° 0 mm 2 mps 655 mmHg 81%
    05:00 +16°C° 0 mm 2 mps 656 mmHg 85%
    06:00 +15°C° 0 mm 2 mps 656 mmHg 88%
    07:00 +17°C° 0 mm 2 mps 657 mmHg 78%
    08:00 +18°C° 0 mm 2 mps 657 mmHg 68%
    09:00 +20°C° 0 mm 3 mps 658 mmHg 58%
    10:00 +23°C° 0 mm 2 mps 658 mmHg 46%
    11:00 +25°C° 0 mm 2 mps 658 mmHg 35%
    12:00 +27°C° 0 mm 2 mps 658 mmHg 23%
    13:00 +27°C° 0 mm 3 mps 658 mmHg 21%
    14:00 +28°C° 0 mm 3 mps 657 mmHg 19%
    15:00 +29°C° 0 mm 3 mps 657 mmHg 17%
    16:00 +27°C° 0 mm 4 mps 657 mmHg 23%
    17:00 +26°C° 0 mm 5 mps 657 mmHg 29%
    18:00 +25°C° 0 mm 5 mps 657 mmHg 35%
    19:00 +23°C° 0 mm 5 mps 657 mmHg 41%
    20:00 +21°C° 0 mm 4 mps 657 mmHg 47%
    21:00 +20°C° 0 mm 4 mps 658 mmHg 53%
    22:00 +20°C° 0 mm 4 mps 657 mmHg 52%
    23:00 +19°C° 0 mm 3 mps 657 mmHg 52%

    21 January, Monday

    Time Temperature Precipitation Wind Pressure Humidity
    00:00 +18°C° 0 mm 3 mps 657 mmHg 51%
    01:00 +18°C° 0 mm 3 mps 656 mmHg 53%
    02:00 +17°C° 0 mm 3 mps 656 mmHg 54%
    03:00 +16°C° 0 mm 2 mps 655 mmHg 56%
    04:00 +16°C° 0 mm 2 mps 655 mmHg 59%
    05:00 +15°C° 0 mm 2 mps 656 mmHg 61%
    06:00 +15°C° 0 mm 2 mps 656 mmHg 64%
    07:00 +17°C° 0 mm 3 mps 657 mmHg 51%
    08:00 +19°C° 0 mm 3 mps 658 mmHg 39%
    09:00 +21°C° 0 mm 4 mps 659 mmHg 26%
    10:00 +23°C° 0 mm 4 mps 659 mmHg 23%
    11:00 +26°C° 0 mm 4 mps 658 mmHg 20%
    12:00 +27°C° 0 mm 4 mps 658 mmHg 16%
    13:00 +28°C° 0 mm 4 mps 658 mmHg 17%
    14:00 +28°C° 0 mm 4 mps 657 mmHg 17%
    15:00 +28°C° 0 mm 4 mps 657 mmHg 18%
    16:00 +27°C° 0 mm 4 mps 657 mmHg 21%
    17:00 +26°C° 0 mm 4 mps 657 mmHg 25%
    18:00 +25°C° 0 mm 5 mps 657 mmHg 29%
    19:00 +23°C° 0 mm 4 mps 657 mmHg 36%
    20:00 +21°C° 0 mm 4 mps 657 mmHg 42%
    21:00 +20°C° 0 mm 3 mps 657 mmHg 48%
    22:00 +19°C° 0 mm 3 mps 657 mmHg 52%
    23:00 +19°C° 0 mm 3 mps 656 mmHg 56%
    Show more